FW0428 Weather Reports


Display with metric or nautical units.
time (UTC)temp
F
wind
direction
speed
MPH
gust
MPH
rain 1hr
in
rain 24hr
in
rain mn
in
humidity
%
barometer
mb
20260831021605 88 75 0.0 0.0 0.00 0.00 0.00 48 1011.5
20260831011520 91 75 0.0 0.0 0.00 0.00 0.00 43 1011.0
20260831010056 93 75 0.0 0.0 0.00 0.00 0.00 41 1010.8
20260831004640 94 75 0.0 0.0 0.00 0.00 0.00 39 1010.8
20260831000103 99 75 0.0 1.0 0.00 0.00 0.00 36 1010.8
20260830234633 98 79 0.0 1.0 0.00 0.00 0.00 36 1010.9
20260830233142 99 281 0.0 0.0 0.00 0.00 0.00 36 1011.0
20260830224638 101 128 0.0 4.0 0.00 0.00 0.00 33 1011.0
20260830223136 101 284 1.0 3.0 0.00 0.00 0.00 33 1011.0
20260830221518 101 277 1.0 3.0 0.00 0.00 0.00 34 1011.1
20260830220018 101 22 0.0 2.0 0.00 0.00 0.00 33 1011.2
20260830214626 100 213 0.0 5.0 0.00 0.00 0.00 35 1011.3
20260830211651 101 304 1.0 3.0 0.00 0.00 0.00 34 1011.6
20260830204513 103 229 0.0 2.0 0.00 0.00 0.00 30 1012.0
20260830200007 101 297 1.0 3.0 0.00 0.00 0.00 33 1012.7
20260830194521 104 148 0.0 3.0 0.00 0.00 0.00 32 1013.0
20260830191618 99 111 0.0 4.0 0.00 0.00 0.00 36 1013.4
20260830183124 99 251 0.0 4.0 0.00 0.00 0.00 40 1013.9
20260830171625 98 105 0.0 3.0 0.00 0.00 0.00 43 1014.9
20260830161630 93 82 0.0 4.0 0.00 0.00 0.00 51 1015.4
20260830140124 81 80 1.0 4.0 0.00 0.00 0.00 78 1015.5
20260830134605 80 89 0.0 4.0 0.00 0.00 0.00 80 1015.3
20260830133004 79 68 0.0 4.0 0.00 0.00 0.00 82 1015.3
20260830130127 77 92 0.0 1.0 0.00 0.00 0.00 85 1015.1
20260830124629 77 98 0.0 1.0 0.00 0.00 0.00 85 1015.0
20260830104554 77 65 0.0 0.0 0.00 0.00 0.00 78 1014.1
20260830103122 77 65 0.0 1.0 0.00 0.00 0.00 77 1013.9
20260830093012 78 16 0.0 0.0 0.00 0.00 0.00 70 1013.7
20260830090130 78 269 0.0 1.0 0.00 0.00 0.00 67 1013.6
20260830080045 80 269 0.0 0.0 0.00 0.00 0.00 64 1013.6
20260830074615 81 269 0.0 1.0 0.00 0.00 0.00 63 1013.7
20260830070019 83 275 0.0 1.0 0.00 0.00 0.00 60 1013.8
20260830064534 83 277 0.0 1.0 0.00 0.00 0.00 59 1013.7
20260830063015 84 279 0.0 1.0 0.00 0.00 0.00 58 1013.7
20260830061602 84 252 0.0 0.0 0.00 0.00 0.00 57 1013.7
20260830060020 84 278 0.0 1.0 0.00 0.00 0.00 56 1013.6
20260830054555 85 277 0.0 3.0 0.00 0.00 0.00 55 1013.6
20260830053049 85 262 0.0 2.0 0.00 0.00 0.00 53 1013.7
20260830051557 85 289 0.0 2.0 0.00 0.00 0.00 52 1013.6
20260830050153 85 273 0.0 3.0 0.00 0.00 0.00 51 1013.6
20260830044507 86 279 0.0 2.0 0.00 0.00 0.00 50 1013.6
20260830040142 87 276 0.0 1.0 0.00 0.00 0.00 48 1013.5